Weather History for Sanford, ME

Change the Weather History Date:

Wednesday, December 18, 2013

  Actual Average Record
Temperature  
Mean Temperature 20 °F -  
Max Temperature 32 °F 35 °F 50 °F (1996)
Min Temperature 8 °F 17 °F 3 °F (2004)
Degree Days  
Heating Degree Days 45    
Moisture  
Dew Point 12 °F    
Average Humidity 70    
Maximum Humidity 100    
Minimum Humidity 47    
Precipitation  
Precipitation 0.06 in - - ()
Sea Level Pressure  
Sea Level Pressure 29.91 in    
Wind  
Wind Speed 9 mph (NW)    
Max Wind Speed 16 mph    
Max Gust Speed 22 mph    
Visibility 10 miles    
Events      
Averages and records for this station are not official NWS values.
T = Trace of Precipitation, MM = Missing Value Source: NWS Daily Summary

Daily Weather History Graph

Daily Weather History Graph

Search for Another Location

Airport:

Trip Planner

Search our weather history database for the weather conditions in past years. The results will help you decide how hot, cold, wet, or windy it might be!

Date:

Astronomy

Dec. 18, 2013 Rise Set
Actual Time 7:10 AM EST 4:08 PM EST
Civil Twilight 6:37 AM EST 4:41 PM EST
Nautical Twilight 6:01 AM EST 5:17 PM EST
Astronomical Twilight 5:27 AM EST 5:52 PM EST
Moon 5:40 PM EST (12/18) 7:46 AM EST (12/18)
Length of Visible Light 10h 03m
Length of Day
8h 57m
Full, 98% of the Moon is Illuminated
Dec 18
Full
Dec 25
Last Quarter
Jan 1
New
Jan 7
First Quarter
Jan 15
Full

Hourly Weather History & Observations

Time (EST) Temp. Windchill Dew Point Humidity Pressure Visibility Wind Dir Wind Speed Gust Speed Precip Events Conditions
12:15 AM 12.2 °F -2.5 °F 6.8 °F 79% 29.97 in 10.0 mi North 12.7 mph 16.1 mph N/A   Overcast
12:35 AM 12.2 °F 0.7 °F 6.8 °F 79% 29.95 in 10.0 mi North 8.1 mph - N/A   Overcast
12:55 AM 12.2 °F -2.5 °F 10.4 °F 92% 29.92 in 10.0 mi North 12.7 mph - N/A   Overcast
1:15 AM 12.2 °F -3.7 °F 6.8 °F 79% 29.93 in 10.0 mi North 15.0 mph - N/A   Overcast
1:35 AM 14.0 °F -2.0 °F 10.4 °F 86% 29.92 in 10.0 mi North 16.1 mph - N/A   Overcast
1:55 AM 14.0 °F -0.2 °F 6.8 °F 73% 29.91 in 10.0 mi North 12.7 mph 19.6 mph N/A   Overcast
2:15 AM 15.8 °F 2.7 °F 10.4 °F 79% 29.91 in 10.0 mi North 11.5 mph - N/A   Overcast
2:35 AM 15.8 °F 2.1 °F 10.4 °F 79% 29.91 in 10.0 mi North 12.7 mph - N/A   Overcast
2:55 AM 15.8 °F 2.7 °F 8.6 °F 73% 29.90 in 10.0 mi NNW 11.5 mph - N/A   Overcast
3:15 AM 15.8 °F 2.7 °F 12.2 °F 86% 29.89 in 10.0 mi North 11.5 mph - N/A   Overcast
3:35 AM 15.8 °F 2.7 °F 6.8 °F 68% 29.88 in 10.0 mi North 11.5 mph - N/A   Overcast
3:55 AM 15.8 °F 3.4 °F 12.2 °F 86% 29.87 in 10.0 mi NNW 10.4 mph 16.1 mph N/A   Overcast
4:15 AM 15.8 °F 2.7 °F 10.4 °F 79% 29.86 in 10.0 mi NNW 11.5 mph - N/A   Overcast
4:35 AM 17.6 °F 5.0 °F 10.4 °F 73% 29.87 in 10.0 mi NNW 11.5 mph - N/A   Overcast
4:55 AM 17.6 °F 4.3 °F 15.8 °F 93% 29.87 in 10.0 mi NNW 12.7 mph 18.4 mph N/A   Overcast
5:15 AM 19.4 °F 7.2 °F 10.4 °F 68% 29.87 in 10.0 mi NNW 11.5 mph - N/A   Overcast
5:35 AM 19.4 °F 10.4 °F 15.8 °F 86% 29.88 in 10.0 mi NNW 6.9 mph - N/A   Overcast
5:55 AM 19.4 °F 9.5 °F 15.8 °F 86% 29.89 in 10.0 mi NNW 8.1 mph - N/A   Overcast
6:15 AM 19.4 °F 9.5 °F 12.2 °F 74% 29.89 in 10.0 mi NW 8.1 mph - N/A   Overcast
6:35 AM 21.2 °F 11.7 °F 17.6 °F 86% 29.89 in 10.0 mi NNW 8.1 mph - N/A   Overcast
6:55 AM 21.2 °F 13.6 °F 10.4 °F 63% 29.89 in 10.0 mi NW 5.8 mph - N/A   Overcast
7:15 AM 21.2 °F 12.6 °F 19.4 °F 93% 29.89 in 10.0 mi NW 6.9 mph - N/A   Overcast
7:35 AM 21.2 °F 13.6 °F 12.2 °F 68% 29.89 in 1.5 mi NW 5.8 mph - N/A   Overcast
7:55 AM 21.2 °F 13.6 °F 17.6 °F 86% 29.88 in 3.0 mi NW 5.8 mph - N/A   Overcast
8:15 AM 21.2 °F 12.6 °F 12.2 °F 68% 29.88 in 10.0 mi NNW 6.9 mph - N/A   Overcast
8:35 AM 21.2 °F 13.6 °F 17.6 °F 86% 29.87 in 10.0 mi NNW 5.8 mph - N/A   Partly Cloudy
8:55 AM 21.2 °F 13.6 °F 12.2 °F 68% 29.87 in 10.0 mi NNW 5.8 mph - N/A   Clear
9:15 AM 23.0 °F 17.0 °F 19.4 °F 86% 29.87 in 10.0 mi NNW 4.6 mph - N/A   Clear
9:35 AM 23.0 °F 14.7 °F 12.2 °F 63% 29.86 in 10.0 mi North 6.9 mph - N/A   Clear
9:55 AM 24.8 °F 20.5 °F 19.4 °F 80% 29.86 in 10.0 mi NW 3.5 mph - N/A   Clear
10:15 AM 26.6 °F 20.0 °F 15.8 °F 64% 29.86 in 10.0 mi NNW 5.8 mph - N/A   Clear
10:35 AM 26.6 °F 19.1 °F 19.4 °F 74% 29.86 in 10.0 mi NW 6.9 mph - N/A   Partly Cloudy
10:55 AM 26.6 °F 20.0 °F 12.2 °F 55% 29.85 in 10.0 mi NNW 5.8 mph - N/A   Clear
11:15 AM 28.4 °F 21.2 °F 19.4 °F 69% 29.85 in 10.0 mi WNW 6.9 mph - N/A   Clear
11:35 AM 28.4 °F 21.2 °F 15.8 °F 59% 29.84 in 10.0 mi NW 6.9 mph - N/A   Clear
11:55 AM 28.4 °F 20.4 °F 15.8 °F 59% 29.84 in 10.0 mi WNW 8.1 mph - N/A   Clear
12:15 PM 28.4 °F 21.2 °F 19.4 °F 69% 29.84 in 10.0 mi NW 6.9 mph - N/A   Clear
12:35 PM 30.2 °F 23.4 °F 15.8 °F 55% 29.84 in 10.0 mi WNW 6.9 mph - N/A   Clear
12:55 PM 30.2 °F 21.9 °F 12.2 °F 47% 29.84 in 10.0 mi WNW 9.2 mph - 0.01 in   Clear
1:15 PM 30.2 °F 21.9 °F 19.4 °F 64% 29.84 in 10.0 mi West 9.2 mph - N/A   Clear
1:35 PM 32.0 °F 24.2 °F 17.6 °F 55% 29.84 in 10.0 mi West 9.2 mph - 0.01 in   Clear
1:55 PM 32.0 °F 22.5 °F 15.8 °F 51% 29.84 in 10.0 mi WNW 12.7 mph 19.6 mph 0.01 in   Partly Cloudy
2:15 PM 32.0 °F 22.5 °F 14.0 °F 48% 29.85 in 10.0 mi WNW 12.7 mph 16.1 mph 0.02 in   Clear
2:35 PM 30.2 °F 23.4 °F 12.2 °F 47% 29.85 in 10.0 mi WNW 6.9 mph - 0.02 in   Clear
2:55 PM 30.2 °F 20.8 °F 12.2 °F 47% 29.87 in 10.0 mi WNW 11.5 mph - 0.03 in   Clear
3:15 PM 30.2 °F 19.8 °F 15.8 °F 55% 29.88 in 10.0 mi West 13.8 mph 20.7 mph 0.01 in   Clear
3:35 PM 30.2 °F 20.8 °F 15.8 °F 55% 29.88 in 10.0 mi West 11.5 mph 21.9 mph 0.01 in   Clear
3:55 PM 28.4 °F 18.5 °F 14.0 °F 55% 29.89 in 10.0 mi West 11.5 mph - 0.01 in   Clear
4:15 PM 28.4 °F 18.0 °F 10.4 °F 47% 29.90 in 10.0 mi West 12.7 mph 19.6 mph N/A   Clear
4:35 PM 28.4 °F 20.4 °F 12.2 °F 51% 29.91 in 10.0 mi West 8.1 mph - N/A   Clear
4:55 PM 26.6 °F 16.8 °F 15.8 °F 64% 29.91 in 10.0 mi West 10.4 mph - N/A   Clear
5:15 PM 26.6 °F 16.8 °F 14.0 °F 59% 29.92 in 10.0 mi West 10.4 mph - N/A   Clear
5:35 PM 26.6 °F 18.2 °F 10.4 °F 51% 29.93 in 10.0 mi West 8.1 mph - N/A   Clear
5:55 PM 26.6 °F 21.2 °F 12.2 °F 55% 29.93 in 10.0 mi West 4.6 mph - N/A   Clear
6:15 PM 23.0 °F 17.0 °F 14.0 °F 68% 29.95 in 10.0 mi SSW 4.6 mph - N/A   Clear
6:35 PM 23.0 °F 17.0 °F 8.6 °F 54% 29.95 in 10.0 mi SSW 4.6 mph - N/A   Clear
6:55 PM 19.4 °F - 10.4 °F 68% 29.96 in 10.0 mi Calm Calm - N/A   Clear
7:15 PM 15.8 °F - 12.2 °F 86% 29.96 in 10.0 mi Calm Calm - N/A   Clear
7:35 PM 14.0 °F - 1.4 °F 57% 29.97 in 10.0 mi Calm Calm - N/A   Clear
7:55 PM 10.4 °F 0.8 °F 6.8 °F 85% 29.97 in 10.0 mi WSW 5.8 mph - N/A   Partly Cloudy
8:15 PM 15.8 °F 4.2 °F 8.6 °F 73% 29.97 in 10.0 mi WSW 9.2 mph - N/A   Clear
8:35 PM 19.4 °F 14.3 °F 15.8 °F 86% 29.97 in 10.0 mi West 3.5 mph - N/A   Clear
8:55 PM 12.2 °F - 8.6 °F 85% 29.98 in 10.0 mi Calm Calm - N/A   Clear
9:15 PM 12.2 °F 4.3 °F -2.2 °F 53% 29.98 in 10.0 mi WSW 4.6 mph - N/A   Clear
9:35 PM 10.4 °F -0.4 °F -0.4 °F 62% 29.98 in 10.0 mi WSW 6.9 mph - N/A   Clear
9:55 PM 15.8 °F 5.1 °F 12.2 °F 86% 29.98 in 10.0 mi WSW 8.1 mph - N/A   Clear
10:15 PM 15.8 °F 8.6 °F 8.6 °F 73% 29.99 in 10.0 mi West 4.6 mph - N/A   Clear
10:35 PM 10.4 °F 2.2 °F 6.8 °F 85% 30.00 in 9.0 mi WSW 4.6 mph - N/A   Clear
10:55 PM 10.4 °F 4.0 °F 3.2 °F 73% 29.99 in 2.0 mi West 3.5 mph - N/A   Clear
11:15 PM 8.6 °F 2.0 °F 3.2 °F 79% 29.99 in 0.8 mi West 3.5 mph - N/A   Unknown
11:35 PM 8.6 °F -1.3 °F 1.4 °F 73% 29.99 in 5.0 mi SW 5.8 mph - N/A   Clear
11:55 PM 15.8 °F 6.1 °F 15.8 °F 100% 29.99 in 10.0 mi WSW 6.9 mph - N/A   Mostly Cloudy